TimeIST,TemperatureF,Dew PointF,Humidity,Sea Level PressureIn,VisibilityMPH,Wind Direction,Wind SpeedMPH,Gust SpeedMPH,PrecipitationIn,Events,Conditions,WindDirDegrees,DateUTC
12:10 AM,68.0,64.4,88,29.95,3.1,NW,2.3,-,N/A,,Haze,320,2012-10-14 18:40:00
1:10 AM,66.2,64.4,94,29.95,1.9,WNW,2.3,-,N/A,,Haze,290,2012-10-14 19:40:00
2:10 AM,66.2,62.6,88,29.92,1.9,NW,2.3,-,N/A,,Haze,310,2012-10-14 20:40:00
2:30 AM,66,64,90,29.91,1,NNW,2.3,,,,Haze,340,2012-10-14 21:00:00
3:10 AM,71.6,62.6,73,29.92,0.0,WNW,2.3,-,N/A,,Haze,300,2012-10-14 21:40:00
4:10 AM,71.6,62.6,73,29.92,-9999.0,NNW,2.3,-,N/A,,Haze,330,2012-10-14 22:40:00
5:10 AM,69.8,62.6,78,29.95,1.9,NNW,2.3,-,N/A,,Haze,330,2012-10-14 23:40:00
5:30 AM,65,64,93,29.95,1,Calm,Calm,,,,Haze,,2012-10-15 00:00:00
6:10 AM,68.0,62.6,83,29.98,1.6,Calm,Calm,-,N/A,,Haze,0,2012-10-15 00:40:00
6:40 AM,68.0,62.6,83,29.98,2.5,NW,3.5,-,N/A,,Haze,320,2012-10-15 01:10:00
8:10 AM,75.2,64.4,69,30.01,3.1,North,2.3,-,N/A,,Haze,350,2012-10-15 02:40:00
8:30 AM,77,64,57,29.99,2,NW,2.3,,,,Haze,320,2012-10-15 03:00:00
9:10 AM,82.4,68.0,62,30.04,3.7,ENE,2.3,-,N/A,,Unknown,60,2012-10-15 03:40:00
10:10 AM,86.0,66.2,51,30.04,3.7,ENE,3.5,-,N/A,,Unknown,60,2012-10-15 04:40:00
11:10 AM,91.4,64.4,41,30.01,3.7,SSE,3.5,-,N/A,,Unknown,150,2012-10-15 05:40:00
11:30 AM,90,68,38,29.94,2,SE,3.5,,,,Clear,140,2012-10-15 06:00:00
12:10 PM,95.0,68.0,41,29.98,3.7,East,3.5,-,N/A,,Unknown,90,2012-10-15 06:40:00
1:10 PM,95.0,64.4,36,29.95,3.7,WSW,3.5,-,N/A,,Unknown,250,2012-10-15 07:40:00
2:10 PM,93.2,68.0,44,29.92,3.7,East,2.3,-,N/A,,Partly Cloudy,90,2012-10-15 08:40:00
2:30 PM,90,63,31,29.86,2,SSE,2.3,,,,Scattered Clouds,160,2012-10-15 09:00:00
3:10 PM,95.0,62.6,34,29.92,3.7,ENE,2.3,-,N/A,,Partly Cloudy,70,2012-10-15 09:40:00
4:10 PM,93.2,53.6,26,29.89,3.7,East,3.5,-,N/A,,Partly Cloudy,90,2012-10-15 10:40:00
5:10 PM,87.8,59.0,38,29.92,3.7,East,2.3,-,N/A,,Scattered Clouds,90,2012-10-15 11:40:00
5:30 PM,78,67,61,29.88,2,Calm,Calm,,,,Clear,,2012-10-15 12:00:00
6:10 PM,80.6,62.6,54,29.92,3.7,Calm,Calm,-,N/A,,Unknown,0,2012-10-15 12:40:00
7:10 PM,78.8,57.2,47,29.95,3.7,Calm,Calm,-,N/A,,Unknown,0,2012-10-15 13:40:00
8:10 PM,75.2,57.2,53,29.95,3.7,Calm,Calm,-,N/A,,Unknown,0,2012-10-15 14:40:00
8:30 PM,67,63,81,29.96,2,Calm,Calm,,,,Clear,,2012-10-15 15:00:00
9:10 PM,75.2,59.0,57,29.98,3.7,Calm,Calm,-,N/A,,Unknown,0,2012-10-15 15:40:00
10:10 PM,73.4,60.8,65,29.98,3.7,Calm,Calm,-,N/A,,Unknown,0,2012-10-15 16:40:00
11:10 PM,73.4,60.8,65,29.98,3.7,NNW,2.3,-,N/A,,Unknown,340,2012-10-15 17:40:00
11:30 PM,65,63,89,29.97,2,West,2.3,,,,Clear,270,2012-10-15 18:00:00